Val DAnniviers, Switzerland 16 day weather forecast

Slopes altitude range 1340 m - 3000m

Number of lifts: 44 Pistes: 220km

In some cases the lift and piste totals shown are for the ski domain (e.g. Three Valleys) rather than individual resort (e.g. Courchevel)

Overview

The 16 day weather forecast is fully updated 4 times every day.

    • Sun 26 MAY 2019
    • Sun 26
    • -2C 2C
    • Mon 27 MAY 2019
    • Mon 27
    • 0C 2C
    • Tue 28 MAY 2019
    • Tue 28
    • -2C -1C
    • Wed 29 MAY 2019
    • Wed 29
    • -6C -3C
    • Thu 30 MAY 2019
    • Thu 30
    • -4C 1C
    • Fri 31 MAY 2019
    • Fri 31
    • 0C 2C
    • Sat 01 JUN 2019
    • Sat 01
    • 1C 7C
    • Sun 02 JUN 2019
    • Sun 02
    • 4C 10C
    • Mon 03 JUN 2019
    • Mon 03
    • 7C 13C
    • Tue 04 JUN 2019
    • Tue 04
    • 8C 14C
    • Wed 05 JUN 2019
    • Wed 05
    • 11C 18C
    • Thu 06 JUN 2019
    • Thu 06
    • 10C 12C
    • Fri 07 JUN 2019
    • Fri 07
    • 10C 13C
    • Sat 08 JUN 2019
    • Sat 08
    • 9C 12C
    • Sun 09 JUN 2019
    • Sun 09
    • 10C 16C
    • Mon 10 JUN 2019
    • Mon 10
    • 10C 15C

Date:

Time Type 0°C level Temp Chill Snow Cloud Speed Gust Dir Press
12:00 2965m 2°C 2_4 1cm 94% 4mph 4mph 1015mB
15:00 2971m 2°C 2_4 5cm 99% 4mph 4mph 1014mB
18:00 3041m 2°C 2_4 5cm 99% 4mph 5mph 1014mB
21:00 3011m 0°C 0_2 2cm 99% 2mph 2mph 1015mB
0:00 2886m 0°C 0_3 1cm 99% 3mph 3mph 1014mB
3:00 2677m -1°C -1_2 0cm 95% 2mph 2mph 1013mB
6:00 2868m -2°C -2_4 0cm 92% 4mph 4mph 1012mB
9:00 3030m 0°C 0_5 1cm 95% 5mph 5mph 1012mB
12:00 3092m 2°C 2_8 1cm 97% 8mph 9mph 1010mB
15:00 3091m 2°C 2_8 3cm 99% 8mph 10mph 1009mB
18:00 3049m 2°C 2_8 2cm 100% 8mph 10mph 1009mB
21:00 2957m 0°C 0_9 1cm 100% 9mph 11mph 1010mB
0:00 2813m -1°C -1_9 1cm 100% 9mph 11mph 1009mB
3:00 2705m -2°C -2_9 1cm 100% 9mph 11mph 1008mB
6:00 2681m -2°C -2_9 1cm 100% 9mph 10mph 1008mB
9:00 2640m -2°C -2_10 3cm 100% 10mph 11mph 1008mB
12:00 2624m -1°C -1_10 2cm 100% 10mph 11mph 1008mB
15:00 2594m -1°C -1_11 1cm 99% 11mph 12mph 1007mB
18:00 2316m -1°C -1_12 2cm 100% 12mph 15mph 1009mB
21:00 2079m -5°C -5_12 3cm 100% 12mph 15mph 1012mB
0:00 1914m -6°C -6_10 2cm 100% 10mph 13mph 1013mB
3:00 1843m -7°C -7_10 1cm 100% 10mph 13mph 1013mB
6:00 1962m -7°C -7_12 1cm 100% 12mph 14mph 1014mB
9:00 2167m -6°C -6_13 1cm 100% 13mph 14mph 1015mB
12:00 2292m -3°C -3_12 1cm 100% 12mph 13mph 1016mB
15:00 2376m -3°C -3_13 1cm 99% 13mph 14mph 1016mB
18:00 2216m -3°C -3_11 1cm 100% 11mph 12mph 1019mB
21:00 1853m -6°C -6_7 1cm 97% 7mph 8mph 1023mB
0:00 1526m -8°C -8_6 1cm 93% 6mph 6mph 1024mB
3:00 1416m -9°C -9_6 0cm 24% 6mph 6mph 1024mB
6:00 2214m -9°C -9_7 0cm 12% 7mph 9mph 1023mB
9:00 2700m -4°C -4_10 0cm 29% 10mph 10mph 1023mB
12:00 2892m 1°C 1_10 0cm 63% 10mph 11mph 1022mB
15:00 2944m 1°C 1_11 0cm 99% 11mph 13mph 1021mB
18:00 2719m 1°C 1_9 0cm 51% 9mph 10mph 1022mB
21:00 2158m -4°C -4_6 0cm 98% 6mph 7mph 1025mB
0:00 2254m -5°C -5_6 0cm 99% 6mph 7mph 1025mB
3:00 2468m -4°C -4_7 1cm 100% 7mph 7mph 1025mB
6:00 2806m -4°C -4_10 1cm 100% 10mph 12mph 1024mB
9:00 3003m 0°C 0_12 1cm 99% 12mph 14mph 1024mB
12:00 3098m 2°C 2_13 1cm 99% 13mph 15mph 1023mB
15:00 3100m 2°C 2_12 1cm 100% 12mph 14mph 1023mB
18:00 3007m 2°C 2_10 1cm 100% 10mph 12mph 1023mB
21:00 2915m 0°C 0_7 0cm 100% 7mph 9mph 1025mB
0:00 2771m -1°C -1_6 0cm 100% 6mph 7mph 1025mB
3:00 2320m -4°C -4_6 0cm 100% 6mph 7mph 1025mB
6:00 3452m -4°C -4_5 0cm 74% 5mph 6mph 1025mB
9:00 3436m 1°C 1_6 0cm 0% 6mph 6mph 1025mB
12:00 3594m 7°C 7_8 0cm 0% 8mph 9mph 1024mB
15:00 3654m 8°C 8_10 0cm 0% 10mph 10mph 1023mB
18:00 3723m 8°C 8_5 0cm 9% 5mph 6mph 1024mB
21:00 2739m -3°C -3_4 0cm 6% 4mph 5mph 1026mB
0:00 3540m -3°C -3_7 0cm 34% 7mph 8mph 1027mB
3:00 3685m 1°C 1_4 0cm 92% 4mph 5mph 1027mB
6:00 3726m 1°C 1_3 0cm 91% 3mph 5mph 1026mB
9:00 3654m 4°C 4_9 0cm 6% 9mph 8mph 1025mB
12:00 3748m 10°C 10_10 0cm 3% 10mph 9mph 1024mB
15:00 3785m 10°C 10_10 0cm 0% 10mph 10mph 1023mB
18:00 3810m 10°C 10_7 0cm 0% 7mph 8mph 1023mB
21:00 3875m 4°C 4_2 0cm 41% 2mph 2mph 1025mB
0:00 3824m 4°C 4_4 0cm 66% 4mph 4mph 1025mB
3:00 3724m 5°C 5_4 0cm 94% 4mph 4mph 1024mB
6:00 3776m 5°C 5_2 0cm 77% 2mph 2mph 1023mB
9:00 3818m 7°C 7_3 0cm 13% 3mph 3mph 1022mB
12:00 3739m 13°C 13_4 0cm 9% 4mph 4mph 1020mB
15:00 3821m 13°C 13_3 0cm 21% 3mph 3mph 1018mB
18:00 3836m 13°C 13_2 0cm 25% 2mph 3mph 1019mB
21:00 3819m 5°C 5_3 0cm 13% 3mph 3mph 1021mB
0:00 3780m 4°C 4_3 0cm 28% 3mph 3mph 1021mB
3:00 3744m 4°C 4_4 0cm 34% 4mph 4mph 1020mB
6:00 3802m 3°C 3_1 0cm 32% 1mph 2mph 1020mB
9:00 3864m 8°C 8_3 0cm 9% 3mph 3mph 1018mB
12:00 3777m 14°C 14_4 0cm 8% 4mph 3mph 1017mB
15:00 3857m 14°C 14_3 0cm 10% 3mph 2mph 1016mB
18:00 3821m 14°C 14_2 0cm 10% 2mph 3mph 1016mB
21:00 3807m 6°C 6_4 0cm 61% 4mph 5mph 1018mB
0:00 3814m 4°C 4_4 0cm 35% 4mph 5mph 1019mB
3:00 3789m 3°C 3_5 0cm 8% 5mph 6mph 1019mB
6:00 3751m 3°C 3_3 0cm 24% 3mph 4mph 1018mB
Afternoon 0.994792mm 11.25 3685m 18°C 18_2 0cm 71% 2mph 3mph 1016mB
Morning 1.32812mm 12.75 3496m 9°C 9_1 0cm 100% 1mph 1mph 1017mB
Afternoon 1.52604mm 7.5 3584m 12°C 12_3 0cm 100% 3mph 4mph 1016mB
Morning 0.885417mm 5.375 3468m 8°C 8_3 0cm 98% 3mph 4mph 1016mB
Afternoon 1.8125mm 17.875 3627m 13°C 13_2 0cm 95% 2mph 4mph 1014mB
Morning 2.47917mm 7.75 3403m 8°C 8_4 0cm 99% 4mph 5mph 1016mB
Afternoon 1.35417mm 4.0625 3682m 12°C 12_4 0cm 90% 4mph 6mph 1016mB
Morning 0.229167mm 2.1875 3724m 7°C 7_2 0cm 99% 2mph 3mph 1019mB
Afternoon 0.34375mm 3.875 3856m 16°C 16_7 0cm 73% 7mph 10mph 1016mB
Morning 0.463542mm 3.625 3691m 7°C 7_3 0cm 92% 3mph 5mph 1017mB
Afternoon 0.796875mm 7.125 3914m 15°C 15_3 0cm 96% 3mph 3mph 1013mB
Morning 1.125mm 13.1875 3800m 8°C 8_5 0cm 74% 5mph 8mph 1016mB

16 day outlook at a glance

Forecast issued: 26/05/2019 12:06:31

Chat

Your comments and questions. In a resort? Let us know what it's like!


Characters left 250

For terms and conditions see Readers Comments on the Cookie and privacy policy page.